Время (UTC), дата Ветер
(°,м/с) 
Видим.   Явления Облачность Т
(°С)
Тd
(°С)
f(%) Тe
(°С)
Pmin
(гПа)
dP
(гПа)
Po
(мм)
O2
(г/м3)
Тmin Tmax R s Состояние
почвы
00 08.10.14 080 (В) 10 км    3/0 верхняя 
[Ci fib]
+4.2 -2 64 +2  1033.7  -0.4  768  305           
03 08.10.14 080 (В) 10 км    5/0 верхняя 
[Ci fib]
+3.4 -1.6 70 +1  1033  -0.6  768  306  +2.3         
06 08.10.14 090 (В) 10 км    4/0 верхняя 
[Ci fib]
+6.4 -0.2 63 +4  1033.3  0.3  768  302  +2.3         
09 08.10.14 100 (В) 8-11{12}  10 км    3/0 верхняя 
[Ci fib]
+12.4 +0.3 43 +11  1031.9  -1  767  296           
12 08.10.14 080 (В) 8-11{12}  10 км    3/0 верхняя 
[Ci fib]
+14 -0.7 36 +13  1030.6  -1.3  766  294           
15 08.10.14 070 (В) 7-11{12}  10 км    3/0 верхняя 
[Ci fib]
+10.9 -0.7 45 +9  1029.9  -0.7  766  297    +14.3       
18 08.10.14 080 (В) 5{12}  10 км    ясно 
+8 +0.1 57 +6  1030  766  300           
21 08.10.14 080 (В) 10 км    ясно 
+5.9 -0.4 64 +4  1029.5  -0.5  765  302           
00 09.10.14 080 (В) 10 км    6/0 средняя 
[Ac trans]
+5.4 -0.3 67 +3  1029  -0.5  765  302           
03 09.10.14 070 (В) 10 км    6/0 средняя 
[Ac trans]
+5.3 +0.3 70 +3  1029  765  302  +4.8         
06 09.10.14 080 (В) 7{10}  10 км    ясно 
+8.4 +3 69 +6  1029.7  0.6  765  299           
09 09.10.14 090 (В) 8-11{11}  10 км    ясно 
+14.6 +5.3 54 +14  1028.9  -0.5  765  292           
12 09.10.14 090 (В) 7-10{13}  10 км    8/0 средняя 
[Ac trans]
+15.8 +4.9 48 +15  1027.7  -1  764  290           
15 09.10.14 090 (В) 4{10}  10 км    8/0 средняя 
[Ac trans]
+14.3 +5.3 55 +14  1028.1  0.3  764  292    +16.3       
18 09.10.14 090 (В) 3{10}  10 км    6/0 средняя 
[Ac trans]
+9.6 +4.9 73 +9  1028.3  764  297           
21 09.10.14 080 (В) 10 км    3/0 средняя 
[Ac trans]
+9.3 +4 69 +8  1028.5  0.1  764  297           
00 10.10.14 080 (В) 10 км    ясно 
+7.9 +3.8 75 +6  1028.4  -0.1  764  299           
03 10.10.14 070 (В) 10 км    ясно 
+5.8 +4.6 92 +4  1029.3  0.7  765  301  +5.5         
06 10.10.14 080 (В) 10 км    1/1 200 м 
[St]
+9.9 +7.6 86 +8  1029.8  0.6  765  296           
09 10.10.14 090 (В) 6-10  10 км    3/3 300 м 
[Sc]
+17 +9.3 60 +17  1029  -0.5  765  289           
12 10.10.14 090 (В) 7-10{11}  10 км    ясно 
+19 +8.2 49 +19  1027.2  -1.6  764  286           
15 10.10.14 080 (В) 4{10}  10 км    4/0 верхняя 
[Ci fib]
+14.8 +7.9 63 +15  1027.5  0.1  764  291    +19.3       
18 10.10.14 090 (В) 4{10}  10 км    ясно 
+11.8 +6.9 72 +11  1027.7  0.1  764  294           
21 10.10.14 080 (В) 10 км    ясно 
+8 +4.9 81 +7  1027.1  -0.6  763  298           
00 11.10.14 080 (В) 10 км    ясно 
+7.8 +5 82 +6  1026.3  -0.7  763  298           
03 11.10.14 080 (В) 10 км    1/0 средняя 
[Ac trans]
+6.2 +4.2 87 +4  1025.9  -0.5  762  300  +6.2         
06 11.10.14 080 (В) 10 км    1/0 верхняя 
[Ci fib]
+10.2 +5.9 75 +8  1025.7  762  295  +6         
09 11.10.14 090 (В) 6{10}  10 км    ясно 
+17.3 +6.8 50 +17  1023.9  -1.6  761  287           
12 11.10.14 080 (В) 6{10}  10 км    ясно 
+19.7 +4.5 37 +20  1022.2  -1.1  760  285           
15 11.10.14 080 (В) 10 км    1/0 средняя 
[Ac trans]
+14.8 +5.7 54 +15  1021.9  -0.6  760  289    +20.2       
18 11.10.14 090 (В) 10 км    ясно 
+12.1 +5.6 64 +11  1021.7  -0.2  760  292           
21 11.10.14 070 (В) 10 км    ясно 
+7.6 +4 78 +6  1021.3  -0.5  759  297           
00 12.10.14 080 (В) 10 км    ясно 
+8.2 +4.5 78 +7  1021.2  -0.1  759  296           
03 12.10.14 080 (В) 10 км    ясно 
+6.7 +4.6 86 +5  1021.1  -0.1  759  298  +6.7         
06 12.10.14 090 (В) 10 км    ясно 
+10 +6.1 77 +9  1021.5  0.5  759  294  +6.3         
09 12.10.14 080 (В) 10 км    ясно 
+16.4 +8.6 60 +16  1020.6  -0.7  759  287           
12 12.10.14 090 (В) 6{10}  10 км    ясно 
+18.7 +8 50 +19  1019.1  -1.3  758  284           
15 12.10.14 070 (В) 10 км    ясно 
+14 +7.1 63 +14  1018.9  -0.4  757  289    +18.9       
18 12.10.14 070 (В) 10 км    ясно 
+11.3 +7.2 76 +12  1019.1  0.2  758  292           
21 12.10.14 070 (В) 10 км    ясно 
+9.3 +6.8 84 +8  1018.8  -0.3  757  294           
00 13.10.14 070 (В) 10 км    ясно 
+8.5 +6.6 88 +7  1018.8  757  295           
03 13.10.14 080 (В) 10 км    ясно 
+7.4 +6.2 92 +6  1018.9  757  296  +6.9         
06 13.10.14 070 (В) 0300 м  туман  ?/?  
+9.4 +8.8 96 +8  1019.4  0.6  758  294           
09 13.10.14 080 (В) 10 км  {туман}  4/1 1000 м средняя, верхняя 
[Cu med, cong|Ac trans|Ci fib]
+17 +10.5 65 +19  1018.5  -0.7  757  285           
12 13.10.14 100 (В) 10 км  {туман}  6/0 верхняя 
[Ci fib]
+18.7 +9.6 55 +19  1017.4  -1  756  284           
15 13.10.14 040 (СВ) 10 км    3/0 верхняя 
[Ci fib]
+15.5 +8.9 65 +16  1017.3  -0.2  756  287    +19.1       
18 13.10.14 040 (СВ) 10 км    3/0 верхняя 
[Ci fib]
+12.5 +7.7 73 +13  1017.8  0.4  757  290           
21 13.10.14 070 (В) 10 км    1/0 верхняя 
[Ci fib]
+8.9 +6.4 84 +8  1017.7  -0.1  756  294           
00 14.10.14 060 (СВ) 10 км    1/0 верхняя 
[Ci fib]
+8.2 +6.4 88 +8  1017.7  0.1  756  295           
03 14.10.14 060 (СВ) 10 км    1/0 верхняя 
[Ci fib]
+6.5 +5.2 91 +6  1018.2  0.3  757  297  +6.4         
06 14.10.14 090 (В) 8000 м  дымка  1/0 верхняя 
[Ci fib]
+12.9 +9 77 +13  1018.5  0.4  757  290  +5.5         
09 14.10.14 090 (В) 10 км    ясно 
+18.7 +10.7 60 +21  1017.8  -0.3  757  283           
12 14.10.14 090 (В) 10 км    ясно 
+20.5 +8.5 46 +21  1016.5  -1.2  756  282           
15 14.10.14 040 (СВ) 10 км    ясно 
+15.1 +7.2 59 +16  1016.4  -0.3  756  287    +21       
18 14.10.14 080 (В) 10 км    ясно 
+12.2 +7 70 +12  1016.9  0.3  756  290           
21 14.10.14 080 (В) 10 км    ясно 
+10.6 +6.2 74 +10  1016.5  -0.3  756  292           
00 15.10.14 070 (В) 10 км    ясно 
+9 +6.3 83 +8  1016.2  -0.3  755  294           
03 15.10.14 090 (В) 4000 м  дымка  1/0 средняя 
[Ac trans]
+8.3 +6.8 90 +7  1016.3  755  294  +6.8         
06 15.10.14 090 (В) 8000 м  дымка  3/0 верхняя 
[Ci fib]
+12.6 +8.9 78 +12  1016.6  0.4  756  290           
09 15.10.14 100 (В) 10 км    5/0 верхняя 
[Ci fib]
+20 +10.5 54 +22  1015.3  -1  755  282           
12 15.10.14 090 (В) 10 км    6/0 верхняя 
[Ci fib]
+23 +7.7 37 +23  1013.9  -1.3  754  279           
15 15.10.14 290 (З) 4300 м  дым  8/0 средняя, верхняя 
[Ac trans|Ci fib]
+15.8 +9.2 65 +17  1013.9  -0.4  754  286    +23.9       
18 15.10.14 тихо ()   5000 м  дым  6/0 средняя, верхняя 
[Ac trans|Ci fib]
+14.2 +9 71 +14  1013.8  754  287           
21 15.10.14 310 (СЗ) 7000 м  дым  9/0 средняя, верхняя 
[Ac trans|Ci fib]
+15 +8.3 64 +16  1013.5  -0.3  753  286           
00 16.10.14 300 (СЗ) 10 км    9/0 средняя 
[Ac trans]
+14.6 +8 65 +15  1013  -0.5  753  287           
03 16.10.14 тихо ()   10 км    10/0 средняя 
[Ac und]
+13.9 +8.7 71 +14  1013  753  287  +12         
06 16.10.14 260 (З) 5000 м  дымка{ливн. осадки}  9/1 1000 м кучево-дожд., средняя 
[Cb calv|Ac trans]
+14.6 +12.3 86 +19  1013.5  0.4  753  286           
09 16.10.14 210 (ЮЗ) 4000 м  дымка  6/0 средняя 
[Ac trans]
+18.4 +13.6 74 +25  1012.4  -0.8  753  281           
12 16.10.14 250 (З) 10 км    10/5 930 м кучево-дожд., средняя 
[Cb calv|Ac und]
+19.1 +13.5 70 +26  1011.1  -1.3  752  280           
15 16.10.14 260 (З) 10 км  {ливн. осадки}  8/3 600 м средняя 
[Sc|Ac trans]
+17.1 +13.5 79 +24  1010.5  -0.6  751  282    +20.4  0.0     
18 16.10.14 230 (ЮЗ) 4000 м  дымка{ливн. осадки}  9/5 900 м средняя 
[Sc|Ac trans]
+16 +13.2 83 +22  1009.5  -1  751  283           
21 16.10.14 200 (Ю) 10 км    9/6 600 м средняя 
[Sc|Ac trans]
+16.4 +12.8 79 +21  1007.6  -1.8  749  282           
03 17.10.14 220 (ЮЗ) 4000 м  слаб. ливневой дождь  10/8 120 м кучево-дожд., средняя 
[Cb calv|Ac As]
+15.2 +14.7 97 +23  1004.7  -1.3  747  282  +14.8       
18 17.10.14 тихо ()   6000 м  дымка  8/0 средняя 
[Ac trans]
+9.2 +7.7 90 +9  1008.8  750  291           
21 17.10.14 230 (ЮЗ) 2500 м  местами туман поземный  9/3 300 м средняя 
[Sc|Ac trans]
+10.6 +9.8 95 +11  1008.7  -0.1  750  289           
06 18.10.14 тихо ()   0900 м  слаб. ливневой дождь{туман}  ?/?  
+12.1 +11.9 99 +16  1006.5  748  286           
09 18.10.14 010 (С) 3600 м  слаб. ливневой дождь{туман}  10/8 210 м кучево-дожд., средняя 
[Cb calv|Ac und]
+12 +11 94 +15  1006.4  -0.1  748  287           
12 18.10.14 030 (СВ) 10 км  в посл. час ливневой дождь{туман}  10/6 750 м средняя 
[Sc|Ac und]
+11.1 +8.5 84 +10  1006.9  0.5  749  288           
15 18.10.14 010 (С) 8-11{11}  10 км    9/6 500 м средняя 
[Sc|Ac trans]
+8.1 +4.8 80 +6  1008.8  1.6  750  293    +13     
18 18.10.14 360 (С) 6-11{11}  10 км    9/6 1000 м средняя 
[Sc|Ac trans]
+5.6 +1.8 76 +3  1011.8  2.9  752  297           
21 18.10.14 350 (С) 6-11{13}  10 км    10/6 800 м средняя 
[Sc|Ac und]
+3.2 +0.4 82 1014.4  2.5  754  300           
00 19.10.14 360 (С) 5{11}  10 км    10/6 800 м средняя 
[Sc|Ac und]
+2.3 -2.2 72 1016.4  755  302           
03 19.10.14 360 (С) 10 км    10/6 800 м средняя 
[Sc|Ac und]
+2.2 -2.4 72 1018.8  2.2  757  303  +2.2         
06 19.10.14 360 (С) 6-10  10 км    9/6 660 м средняя 
[Sc|Ac trans]
+1.9 -2.1 75 -1  1021.5  2.7  759  304  +1.8         
09 19.10.14 360 (С) 5{10}  10 км    10/8 750 м средняя 
[Sc|Ac und]
+1.4 -3.1 72 -1  1023.7  2.2  761  305           
12 19.10.14 340 (С) 4{10}  10 км    10/6 800 м средняя 
[Sc|Ac und]
+1.8 -3.7 67 1024.8  762  305           
15 19.10.14 300 (СЗ) 10 км    8/3 600 м средняя 
[Sc|Ac trans]
+1.6 -3.7 68 1026  1.2  762  306    +2.4       
18 19.10.14 260 (З) 10 км    3/0 средняя 
[Ac trans]
-0.7 -3.7 80 -2  1026.8  0.8  763  309           
21 19.10.14 270 (З) 10 км    4/0 верхняя 
[Ci fib]
-1.3 -3 88 -2  1027.1  0.1  763  309           
00 20.10.14 250 (З) 7000 м  дымка  6/0 верхняя 
[Ci fib]
-2 -2.8 94 -4  1026.2  -0.9  762  310           
03 20.10.14 230 (ЮЗ) 7000 м  дымка  9/0 средняя, верхняя 
[Ac trans|Ci fib]
-0.4 -1.7 91 -3  1024.9  -1.2  762  308  -2.8         
06 20.10.14 220 (ЮЗ) 10 км    9/0 средняя 
[Ac trans]
+1 -1.2 85 -2  1023.4  -1.4  761  305           
09 20.10.14 220 (ЮЗ) 10 км    9/5 630 м средняя 
[Sc|Ac trans]
+5.2 +1.9 79 +2  1021.2  -2.1  759  300           
12 20.10.14 230 (ЮЗ) 8-12{12}  10 км    9/6 630 м средняя 
[Sc|Ac trans]
+7.9 +3.7 75 +5  1017.6  -3.3  756  296           
15 20.10.14 220 (ЮЗ) 7-10{13}  10 км    6/3 600 м средняя 
[Sc|Ac trans]
+7.4 +4.7 83 +5  1014.9  -2.8  754  295    +8.3       
18 20.10.14 230 (ЮЗ) 9-13{14}  10 км    8/5 700 м средняя 
[Sc|Ac trans]
+8.6 +5.5 81 +6  1013.4  -1.4  753  293           
21 20.10.14 230 (ЮЗ) 10-13{13}  10 км    9/6 630 м средняя 
[Sc|Ac trans]
+9 +6.8 86 +6  1012.3  -1  752  292           
00 21.10.14 240 (ЮЗ) 7-10{13}  4000 м  слаб. дождь{ливн. осадки}  10/6 480 м средняя 
[Sc|Ac und]
+10 +8.5 90 +8  1010.9  -1.3  751  291           
03 21.10.14 230 (ЮЗ) 7-10{12}  4000 м  слаб. дождь  10/8 480 м средняя 
[Sc|Ac und]
+10.6 +9 90 +9  1009.2  -1.7  750  289  +7.2    0.7     
09 21.10.14 240 (ЮЗ) 8-12{14}  4000 м  в посл. час морось  10/10 240 м 
[St]
+11.9 +10.8 93 +12  1008.6  -1  750  287           
12 21.10.14 250 (З) 58-13{14}  4000 м  дымка{дождь, морось}  10/10 360 м 
[Sc]
+13.5 +11.3 87 +12  1008.1  -0.3  749  286           
15 21.10.14 240 (ЮЗ) 9-12{14}  10 км  {дождь}  10/8 450 м средняя 
[Sc|Ac und]
+13.4 +10.8 84 +14  1008.2  749  286    +14.1  0.0     
18 21.10.14 240 (ЮЗ) 8-11{14}  10 км  слаб. ливневой дождь  10/8 400 м кучево-дожд., средняя 
[Cb calv|Ac und]
+12.8 +10.7 87 +13  1008.5  0.3  750  287           
21 21.10.14 250 (З) 6{12}  7000 м  слаб. ливневой дождь  10/8 180 м кучево-дожд., средняя 
[Cb calv|Ac und]
+11.9 +11.1 95 +14  1007.6  -0.7  749  287           
00 22.10.14 260 (З) 4{12}  10 км  слаб. ливневой дождь  10/8 150 м кучево-дожд., средняя 
[Cb calv|Ac und]
+11.7 +11 95 +14  1006.5  -1  748  287           
03 22.10.14 250 (З) 4000 м  слаб. ливневой дождь  10/8 150 м кучево-дожд., средняя 
[Cb calv|Ac und]
+11.2 +10.6 96 +12  1007.2  0.5  749  288  +10.9       
06 22.10.14 260 (З) 4500 м  дымка{ливн. осадки}  10/10 150 м 
[St]
+11.3 +10.7 96 +13  1009.2  750  288           
09 22.10.14 250 (З) 7000 м  дымка  10/10 330 м 
[Sc]
+12.4 +10.4 88 +14  1010.3  1.1  751  288           
12 22.10.14 250 (З) 10 км    8/4 300 м верхняя 
[Sc|Ci fib]
+13.4 +9.9 79 +14  1010.4  751  287           
15 22.10.14 тихо ()   8000 м  дымка  6/0 средняя, верхняя 
[Ac trans|Ci fib]
+9.9 +8.7 92 +10  1011  0.5  752  291    +13.9  0.0     
18 22.10.14 280 (З) 4000 м  дымка  9/0 средняя 
[Ac trans]
+10.7 +10 95 +13  1012.1  0.9  752  290           
21 22.10.14 110 (В) 2000 м  дымка  10/0 средняя 
[Ac und]
+10.5 +9.7 95 +13  1012.6  0.5  753  290           
00 23.10.14 050 (СВ) 2800 м  дымка  10/8 300 м средняя 
[St|Ac und]
+10.7 +10 95 +11  1013  0.3  753  290           
03 23.10.14 060 (СВ) 2700 м  дымка  10/10 100 м 
[St]
+8.5 +8 97 +8  1013.7  0.5  753  293  +8.5         
06 23.10.14 070 (В) 1500 м  дымка{туман}  10/10 100 м 
[St]
+6.8 +6.3 97 +4  1015.6  1.9  755  296  +6.7         
09 23.10.14 060 (СВ) 8-11{11}  4000 м  дымка  10/10 270 м 
[St]
+4.7 +3.1 89 +1  1017.2  1.5  756  299           
12 23.10.14 060 (СВ) 8-11{13}  10 км    10/8 420 м средняя 
[Sc|Ac und]
+3.5 +1.2 85 1018  0.6  757  301           
15 23.10.14 060 (СВ) 7-11{12}  10 км    10/10 500 м 
[Sc]
+2.1 -0.7 82 -1  1019.4  1.3  758  303    +8.5       
18 23.10.14 060 (СВ) 10-14{13}  10 км    10/6 630 м средняя 
[Sc|Ac und]
+0.7 -2.6 79 -4  1020.7  1.2  758  305           
21 23.10.14 050 (СВ) 8-11{14}  10 км  слаб. ливневой дождь  10/4 600 м кучево-дожд., средняя 
[Cb calv|Ac und]
+0.7 -2.9 77 -3  1022.1  1.3  760  306           
00 24.10.14 060 (СВ) 11-14{14}  10 км  {ливн. осадки}  10/0 средняя 
[Ac As]
-0.1 -5 69 -5  1023.1  0.9  760  307           
03 24.10.14 060 (СВ) 9-12{15}  10 км  слаб. переохл. дождь (гололёд) [диам. гололёда 1 мм]  10/0 средняя 
[As op]
-1.6 -4.3 82 -7  1024.4  1.1  761  309  -1.6    0.2     
06 24.10.14 070 (В) 7-10{15}  10 км  слаб. переохл. дождь (гололёд) [диам. гололёда 2 мм]  10/0 средняя 
[As op]
-2.5 -5.5 80 -7  1026.6  2.1  763  311  -2.6         
09 24.10.14 070 (В) 8-12{14}  10 км  в посл. час крупа{ливн. осадки, дождь} [диам. гололёда 2 мм]  10/3 1000 м кучево-дожд., средняя 
[Cb calv|Ac und]
-1.8 -7.1 67 -6  1027.3  0.8  763  310           
12 24.10.14 060 (СВ) 9-11{14}  10 км  в посл. час крупа{ливн. осадки, дождь} [диам. гололёда 0 мм]  10/3 1000 м кучево-дожд., средняя 
[Cb calv|Ac und]
-0.9 -7.9 59 -6  1027.3  763  309           
15 24.10.14 060 (СВ) 7-10{11}  10 км    10/0 
[Sc]
-1.1 -7.1 64 -5  1028.2  0.9  764  310    -0.5  0.0     
18 24.10.14 060 (СВ) 8-11{13}  10 км    10/0 средняя 
[Ac und]
-1.6 -7.9 62 -6  1028.7  0.3  764  311           
21 24.10.14 060 (СВ) 8-11{12}  10 км    10/0 средняя 
[Ac und]
-1.9 -7.8 64 -7  1029.1  0.3  765  311           
00 25.10.14 060 (СВ) 7-11{12}  10 км    10/0 
[Sc]
-2.6 -8 66 -7  1029.3  0.2  765  312           
06 25.10.14 060 (СВ) 7{11}  10 км    8/0 средняя, верхняя 
[Ac trans|Ci fib]
-2.9 -8.1 67 -7  1032.6  2.3  767  313  -5.4         
09 25.10.14 070 (В) 8-11{11}  10 км    3/0 средняя 
[Ac trans]
+0.1 -8.3 53 -4  1033  0.4  768  310           
12 25.10.14 060 (СВ) 6-10{11}  10 км    1/0 средняя 
[Ac trans]
+2 -9.4 43 -1  1033.1  0.2  768  308           
15 25.10.14 050 (СВ) 5{10}  10 км    1/0 средняя 
[Ac trans]
-1.5 -9.6 54 -5  1034.1  0.8  768  312    +2.4       
18 25.10.14 080 (В) 7{10}  10 км    ясно 
-2.9 -10.2 57 -7  1035.2  769  314           
21 25.10.14 070 (В) 8-10{10}  10 км    1/0 верхняя 
[Ci fib]
-5.1 -9.7 70 -10  1036.7  1.3  770  317           
00 26.10.14 060 (СВ) 7-10{10}  10 км    ясно 
-6.5 -10.9 71 -12  1036.7  770  319           
03 26.10.14 060 (СВ) 7-10{11}  10 км    ясно 
-6.8 -11.3 70 -12  1037.6  0.6  771  320  -6.9         
06 26.10.14 080 (В) 8-11{11}  10 км    ясно 
-4.7 -9.6 68 -10  1038.2  0.6  771  317  -7.4         
09 26.10.14 090 (В) 8-12{14}  10 км    ясно 
-0.6 -8.6 55 -5  1038  771  312           
12 26.10.14 090 (В) 8-12{14}  10 км    ясно 
+1.4 -8.5 48 -3  1037.2  -0.8  771  310           
15 26.10.14 080 (В) 8-12{12}  10 км    1/0 средняя 
[Ac trans]
-1.4 -8.3 59 -6  1037.9  0.5  771  313    +1.7       
18 26.10.14 080 (В) 10 км    ясно 
-3.2 -8.2 68 -8  1038.4  0.4  772  315           
21 26.10.14 080 (В) 10 км    ясно 
-5 -8.6 76 -9  1038.6  0.1  772  318           
00 27.10.14 080 (В) 10 км    ясно 
-5.2 -8.8 76 -10  1037.8  -0.8  771  318           
03 27.10.14 080 (В) 7-10{12}  10 км    ясно 
-6.1 -8.3 84 -11  1037.9  0.1  771  319  -6.2         
06 27.10.14 090 (В) 10-13{12}  10 км    ясно 
-2.9 -8 68 -8  1038  0.1  771  315           
09 27.10.14 080 (В) 10-13{14}  10 км    ясно 
+2.7 -5.8 54 -2  1036.8  -0.7  770  308           
12 27.10.14 090 (В) 9-13{14}  10 км    ясно 
+5.3 -3.8 52 +2  1035.9  -0.9  770  305           
15 27.10.14 090 (В) 7-10{13}  10 км    6/4 600 м средняя 
[Sc|Ac trans]
+2.4 -5.4 56 -1  1036.1  0.1  770  308    +5.7       
18 27.10.14 090 (В) 7-10{13}  10 км    8/5 840 м средняя 
[Sc|Ac trans]
+1.6 -5.2 61 -2  1035.7  -0.3  770  309           
21 27.10.14 090 (В) 7-10{10}  10 км    ясно 
-1.4 -6 71 -6  1035.3  -0.6  769  312           
00 28.10.14 080 (В) 7{10}  10 км    ясно 
-2.2 -6.5 72 -7  1034.6  -0.6  769  313           
03 28.10.14 080 (В) 10 км    ясно 
-2.3 -5.3 80 -7  1034.4  -0.1  769  313  -2.5         
06 28.10.14 090 (В) 8-11{11}  10 км    ясно 
-0.1 -3.8 76 -4  1034.9  0.4  769  310  -2.7         
09 28.10.14 090 (В) 9-12{12}  10 км    ясно 
+6.4 -1.4 57 +3  1033.8  -0.8  768  303           
12 28.10.14 090 (В) 9-12{12}  10 км    ясно 
+8.4 -1.3 50 +6  1032.4  -1.4  767  300           
15 28.10.14 080 (В) 6{12}  10 км    ясно 
+5 -2.3 59 +2  1032.3  -0.1  767  304    +8.9       
18 28.10.14 090 (В) 6{12}  10 км    ясно 
+2.5 -3.6 64 1032.4  0.1  767  307           
21 28.10.14 090 (В) 10 км    ясно 
+2.1 -1 80 -1  1031.7  -0.7  767  307           
00 29.10.14 080 (В) 10 км    ясно 
+0.6 -0.7 91 -2  1030.9  -0.8  766  308           
03 29.10.14 080 (В) 10 км    ясно 
+0.3 -0.8 92 -3  1030.7  -0.1  766  308  +0.2         
06 29.10.14 090 (В) 7-10{10}  10 км    ясно 
+3.2 +0.9 85 1030.7  0.1  766  305  -0.2         
09 29.10.14 080 (В) 7-10{11}  10 км    4/0 верхняя 
[Ci fib]
+8.5 +2.4 65 +6  1029.6  -0.7  765  299           
12 29.10.14 090 (В) 8-11{12}  10 км    4/0 верхняя 
[Ci fib]
+11.1 +1.8 53 +9  1028  -1.3  764  296           
15 29.10.14 080 (В) 5{11}  10 км    1/0 верхняя 
[Ci fib]
+7.6 +2.3 69 +6  1027.8  -0.4  764  299    +11.4       
18 29.10.14 090 (В) 5{11}  10 км    ясно 
+5.6 +2.3 79 +4  1027.6  -0.3  764  301           
21 29.10.14 090 (В) 10 км    ясно 
+4 +1.8 85 +2  1027.3  -0.3  763  303           
00 30.10.14 080 (В) 6{10}  10 км    ясно 
+3.7 +1.8 87 +1  1026.4  -0.9  763  303           
03 30.10.14 090 (В) 10 км    ясно 
+2.6 +1.2 90 1025.8  -0.6  762  304  +2.6         
06 30.10.14 090 (В) 7-11  10 км    1/0 средняя 
[Ac trans]
+5.1 +2.4 83 +2  1025.3  -0.2  762  301  +2.3         
09 30.10.14 100 (В) 10-13{13}  10 км    4/4 300 м 
[St]
+11.3 +4.6 63 +9  1023.4  -1.6  761  294           
12 30.10.14 100 (В) 9-13{14}  10 км    3/3 600 м 
[Sc]
+13.1 +4.2 55 +12  1021.6  -1.7  759  291           
15 30.10.14 100 (В) 6-10{13}  10 км    5/0 средняя 
[Ac trans]
+9.8 +2.7 61 +8  1021.8  0.2  760  295    +13.5       
18 30.10.14 090 (В) 6{13}  10 км    4/0 средняя 
[Ac trans]
+8.1 +1.9 65 +6  1021.5  -0.3  759  297           
21 30.10.14 090 (В) 7-10{11}  10 км    8/3 1000 м средняя 
[Sc|Ac trans]
+6.6 +0.7 66 +4  1020.4  -1  758  298           
00 31.10.14 080 (В) 6{11}  10 км    6/0 средняя 
[Ac trans]
+4.6 +1.1 78 +2  1019.8  -0.7  758  300           
03 31.10.14 080 (В) 6{11}  10 км    9/6 330 м средняя 
[St|Ac trans]
+6 +3.1 82 +4  1019.1  -0.6  757  298  +4.4         
06 31.10.14 070 (В) 6{11}  10 км    10/10 300 м 
[St]
+6.8 +4.4 85 +5  1018.9  -0.1  757  297           
09 31.10.14 070 (В) 6{10}  10 км    10/8 400 м средняя 
[Sc|Ac und]
+9.1 +5.7 79 +7  1018  -0.8  757  294           
12 31.10.14 070 (В) 7{10}  10 км  {дождь}  9/6 600 м средняя 
[Sc|Ac trans]
+10.5 +5.8 73 +9  1016.7  -1.2  756  292           
15 31.10.14 080 (В) 6{10}  10 км    10/6 570 м средняя 
[Sc|Ac und]
+9.3 +5.8 79 +8  1017.1  0.3  756  294    +10.8  0.0     
18 31.10.14 080 (В) 6{10}  10 км    10/8 660 м средняя 
[Sc|Ac und]
+9 +3.1 67 +7  1016.8  -0.2  756  294           
21 31.10.14 050 (СВ) 10 км    10/10 840 м 
[Sc]
+8.2 +3 70 +7  1015.6  -1.1  755  295           
00 01.11.14 050 (СВ) 10 км    10/8 540 м средняя 
[Sc|Ac und]
+8.1 +2.6 68 +7  1014.3  -1.3  754  295           
06 01.11.14 330 (СЗ) 10 км    9/4 1000 м средняя 
[Sc|Ac trans]
+7.1 +1.9 69 +6  1013.3  753  295  +6.5         
09 01.11.14 320 (СЗ) 10 км    8/3 600 м средняя, верхняя 
[Sc|Ac trans|Ci]
+11.5 +4.6 63 +12  1011.4  -1.8  752  290           
00 02.11.14 310 (СЗ) 4{12}  10 км    6/0 средняя 
[Ac trans]
+0.6 -2.5 80 -2  1015.3  0.2  754  304           
06 02.11.14 320 (СЗ) 4000 м  слаб. ливневой снег  9/4 600 м кучево-дожд., средняя 
[Cb calv|Ac trans]
+2.2 -0.3 84 1017.3  1.3  756  302           
Время (UTC), дата Ветер
(°,м/с) 
Видим.   Явления Облачность Т
(°С)
Тd
(°С)
f(%) Тe
(°С)
Pmin
(гПа)
dP
(гПа)
Po
(мм)
O2
(г/м3)
Тmin Tmax R s Состояние
почвы